CW4199 Weather Reports


Display with metric or nautical units.
time (UTC)temp
F
wind
direction
speed
MPH
gust
MPH
rain 1hr
in
rain 24hr
in
rain mn
in
humidity
%
barometer
mb
20260510090904 61 225 0.0 5.0 0.00 0.00 0.00 88 1013.9
20260510090404 61 228 2.0 6.0 0.00 0.00 0.00 87 1013.8
20260510085904 61 229 0.0 2.0 0.00 0.00 0.00 87 1013.7
20260510084904 61 226 3.0 7.0 0.00 0.00 0.00 87 1013.5
20260510084404 61 219 3.0 7.0 0.00 0.00 0.00 87 1013.5
20260510083904 61 214 3.0 8.0 0.00 0.00 0.00 86 1013.3
20260510083404 61 201 4.0 7.0 0.00 0.00 0.00 86 1013.3
20260510082904 61 192 4.0 6.0 0.00 0.00 0.00 86 1013.2
20260510082404 61 209 5.0 8.0 0.00 0.00 0.00 86 1013.2
20260510081904 61 211 3.0 6.0 0.00 0.00 0.00 85 1013.2
20260510081403 61 200 3.0 7.0 0.00 0.00 0.00 85 1013.3
20260510080904 61 207 3.0 7.0 0.00 0.00 0.00 85 1013.2
20260510080404 61 210 3.0 6.0 0.00 0.00 0.00 84 1013.2
20260510075904 60 200 3.0 5.0 0.00 0.00 0.00 84 1013.1
20260510075404 60 223 3.0 6.0 0.00 0.00 0.00 83 1013.3
20260510074404 60 205 3.0 6.0 0.00 0.00 0.00 83 1013.3
20260510073904 59 207 3.0 6.0 0.00 0.00 0.00 84 1013.3
20260510073404 58 212 3.0 5.0 0.00 0.00 0.00 85 1013.4
20260510072904 57 207 3.0 7.0 0.00 0.00 0.00 85 1013.4
20260510072404 55 182 1.0 3.0 0.00 0.00 0.00 84 1013.5
20260510071904 55 182 0.0 1.0 0.00 0.00 0.00 84 1013.6
20260510071404 55 182 1.0 3.0 0.00 0.00 0.00 85 1013.5
20260510065904 54 24 0.0 2.0 0.00 0.00 0.00 86 1013.4
20260510064904 53 18 0.0 1.0 0.00 0.00 0.00 86 1013.3
20260510064404 54 18 0.0 1.0 0.00 0.00 0.00 86 1013.3
20260510063904 54 18 0.0 1.0 0.00 0.00 0.00 85 1013.3
20260510063404 54 18 1.0 1.0 0.00 0.00 0.00 85 1013.3
20260510062904 54 18 0.0 1.0 0.00 0.00 0.00 85 1013.2
20260510062404 54 19 1.0 2.0 0.00 0.00 0.00 85 1013.2
20260510061404 54 18 0.0 1.0 0.00 0.00 0.00 84 1013.1
20260510060904 54 19 1.0 2.0 0.00 0.00 0.00 85 1013.1
20260510060404 54 18 0.0 0.0 0.00 0.00 0.00 85 1013.1
20260510055404 54 18 0.0 0.0 0.00 0.00 0.00 85 1013.1
20260510054904 54 18 0.0 0.0 0.00 0.00 0.00 85 1013.1
20260510054404 54 18 0.0 0.0 0.00 0.00 0.00 85 1013.1
20260510053904 54 18 0.0 0.0 0.00 0.00 0.00 85 1013.0
20260510053404 54 18 0.0 0.0 0.00 0.00 0.00 85 1013.1
20260510052904 55 18 1.0 2.0 0.00 0.00 0.00 85 1013.0
20260510052405 55 18 1.0 2.0 0.00 0.00 0.00 85 1013.0
20260510051904 55 18 0.0 0.0 0.00 0.00 0.00 85 1013.1
20260510051403 55 18 0.0 0.0 0.00 0.00 0.00 85 1013.1
20260510050904 55 18 0.0 1.0 0.00 0.00 0.00 84 1013.1
20260510050403 55 18 0.0 0.0 0.00 0.00 0.00 84 1013.1
20260510045903 56 18 0.0 2.0 0.00 0.00 0.00 84 1013.1
20260510045404 56 9 0.0 2.0 0.00 0.00 0.00 83 1013.2
20260510044403 56 9 0.0 0.0 0.00 0.00 0.00 83 1013.1
20260510043904 56 9 0.0 0.0 0.00 0.00 0.00 82 1013.0
20260510043404 56 9 0.0 0.0 0.00 0.00 0.00 82 1013.0
20260510042904 56 9 0.0 0.0 0.00 0.00 0.00 82 1012.9
20260510042404 57 9 0.0 0.0 0.00 0.00 0.00 81 1013.0
20260510041903 57 9 0.0 0.0 0.00 0.00 0.00 81 1013.0
20260510040904 57 9 0.0 0.0 0.00 0.00 0.00 81 1013.0
20260510040404 57 9 0.0 0.0 0.00 0.00 0.00 80 1013.1
20260510035904 57 9 0.0 0.0 0.00 0.00 0.00 81 1013.1
20260510035404 57 9 0.0 0.0 0.00 0.00 0.00 80 1013.1
20260510034904 58 9 0.0 0.0 0.00 0.00 0.00 80 1013.0
20260510034404 58 9 0.0 0.0 0.00 0.00 0.00 80 1013.0
20260510033904 58 9 0.0 0.0 0.00 0.00 0.00 79 1013.0
20260510032403 59 9 0.0 0.0 0.00 0.00 0.00 79 1013.1
20260510031403 59 9 0.0 0.0 0.00 0.00 0.00 78 1013.1
20260510030904 60 9 0.0 0.0 0.00 0.00 0.00 77 1013.1
20260510030404 60 9 0.0 0.0 0.00 0.00 0.00 77 1013.1
20260510025904 60 9 0.0 0.0 0.00 0.00 0.00 77 1012.9
20260510025404 60 9 0.0 0.0 0.00 0.00 0.00 76 1012.9
20260510024904 60 9 0.0 0.0 0.00 0.00 0.00 76 1012.8
20260510024404 61 9 0.0 0.0 0.00 0.00 0.00 75 1012.8
20260510023404 61 9 0.0 0.0 0.00 0.00 0.00 74 1012.6
20260510022904 61 9 0.0 0.0 0.00 0.00 0.00 72 1012.6
20260510022404 62 9 0.0 0.0 0.00 0.00 0.00 72 1012.5
20260510021904 62 9 0.0 0.0 0.00 0.00 0.00 71 1012.4
20260510021404 62 9 0.0 0.0 0.00 0.00 0.00 70 1012.3
20260510020904 62 9 0.0 0.0 0.00 0.00 0.00 69 1012.2
20260510015904 63 9 0.0 0.0 0.00 0.00 0.00 68 1012.1
20260510014904 64 9 0.0 0.0 0.00 0.00 0.00 67 1012.0
20260510014404 64 9 0.0 0.0 0.00 0.00 0.00 67 1011.9
20260510013904 64 9 0.0 0.0 0.00 0.00 0.00 66 1011.8
20260510013404 65 9 0.0 0.0 0.00 0.00 0.00 66 1011.9
20260510012904 66 9 0.0 0.0 0.00 0.00 0.00 65 1011.9
20260510012404 66 9 0.0 0.0 0.00 0.00 0.00 64 1011.8
20260510011904 66 9 0.0 0.0 0.00 0.00 0.00 63 1011.7
20260510010903 67 9 0.0 1.0 0.00 0.00 0.00 60 1011.6
20260510010404 68 9 0.0 0.0 0.00 0.00 0.00 59 1011.6
20260510005404 69 9 0.0 1.0 0.00 0.00 0.00 59 1011.4
20260510004904 69 9 0.0 0.0 0.00 0.00 0.00 58 1011.5
20260510004404 70 9 0.0 0.0 0.00 0.00 0.00 57 1011.5
20260510003904 71 9 0.0 0.0 0.00 0.00 0.00 55 1011.3
20260510003403 72 9 0.0 0.0 0.00 0.00 0.00 54 1011.2
20260510002903 72 9 0.0 0.0 0.00 0.00 0.00 51 1011.3
20260510001904 73 9 0.0 1.0 0.00 0.00 0.00 49 1011.2
20260510001404 74 9 0.0 1.0 0.00 0.00 0.00 48 1011.2
20260510000904 75 9 0.0 1.0 0.00 0.00 0.00 44 1011.1
20260510000404 76 9 1.0 2.0 0.00 0.00 0.00 41 1011.0
20260509235904 76 350 1.0 2.0 0.00 0.00 0.00 38 1010.9
20260509235403 76 350 1.0 2.0 0.00 0.00 0.00 39 1010.9
20260509233904 77 350 1.0 2.0 0.00 0.00 0.00 38 1010.8
20260509233404 77 350 1.0 3.0 0.00 0.00 0.00 38 1010.8
20260509232904 77 346 3.0 3.0 0.00 0.00 0.00 39 1010.8
20260509232403 77 323 3.0 5.0 0.00 0.00 0.00 39 1010.9
20260509231904 77 359 3.0 5.0 0.00 0.00 0.00 38 1011.0
20260509231404 78 318 3.0 3.0 0.00 0.00 0.00 40 1010.9
20260509230904 78 314 2.0 3.0 0.00 0.00 0.00 40 1010.8
20260509230404 78 293 2.0 3.0 0.00 0.00 0.00 39 1010.7
20260509225903 78 341 3.0 5.0 0.00 0.00 0.00 39 1010.6
20260509225403 79 359 3.0 3.0 0.00 0.00 0.00 39 1010.8
20260509224903 79 348 3.0 3.0 0.00 0.00 0.00 40 1010.8
20260509224404 79 352 3.0 5.0 0.00 0.00 0.00 39 1010.7
20260509223904 79 305 3.0 7.0 0.00 0.00 0.00 39 1010.6
20260509223403 80 310 3.0 5.0 0.00 0.00 0.00 38 1010.6
20260509222904 80 298 2.0 5.0 0.00 0.00 0.00 39 1010.8
20260509222404 80 299 3.0 8.0 0.00 0.00 0.00 39 1010.8
20260509221904 80 6 1.0 3.0 0.00 0.00 0.00 40 1010.7
20260509221404 80 5 2.0 3.0 0.00 0.00 0.00 39 1010.6
20260509220904 80 321 3.0 8.0 0.00 0.00 0.00 39 1010.8
20260509220403 80 298 3.0 8.0 0.00 0.00 0.00 38 1010.8
20260509215903 80 337 3.0 7.0 0.00 0.00 0.00 41 1010.6
20260509215404 79 268 3.0 7.0 0.00 0.00 0.00 39 1010.7
20260509214904 80 295 2.0 8.0 0.00 0.00 0.00 40 1010.8
20260509214403 80 293 5.0 8.0 0.00 0.00 0.00 40 1010.8
20260509213904 80 292 2.0 5.0 0.00 0.00 0.00 41 1010.7
20260509213404 80 300 3.0 6.0 0.00 0.00 0.00 41 1010.8
20260509212904 80 305 3.0 5.0 0.00 0.00 0.00 41 1010.9
20260509212404 80 253 1.0 3.0 0.00 0.00 0.00 41 1010.8
20260509211904 80 285 3.0 6.0 0.00 0.00 0.00 42 1010.8
20260509211404 80 88 0.0 2.0 0.00 0.00 0.00 43 1010.8
20260509210403 80 87 3.0 6.0 0.00 0.00 0.00 43 1010.6
20260509205905 79 96 2.0 3.0 0.00 0.00 0.00 43 1010.8
20260509205404 79 101 2.0 3.0 0.00 0.00 0.00 43 1011.0
20260509204904 79 165 4.0 7.0 0.00 0.00 0.00 42 1010.9
20260509204404 79 192 3.0 6.0 0.00 0.00 0.00 43 1010.6
20260509203903 80 189 2.0 5.0 0.00 0.00 0.00 43 1010.7
20260509203404 79 91 2.0 6.0 0.00 0.00 0.00 42 1010.8
20260509202904 79 91 2.0 6.0 0.00 0.00 0.00 44 1010.8
20260509202403 79 103 3.0 8.0 0.00 0.00 0.00 44 1010.8
20260509201903 79 79 4.0 8.0 0.00 0.00 0.00 45 1010.8
20260509200905 79 312 5.0 8.0 0.00 0.00 0.00 45 1011.0
20260509200404 79 344 3.0 8.0 0.00 0.00 0.00 45 1010.9
20260509195905 79 287 3.0 8.0 0.00 0.00 0.00 43 1010.9
20260509194905 79 286 3.0 8.0 0.00 0.00 0.00 45 1010.9
20260509193904 78 63 2.0 3.0 0.00 0.00 0.00 46 1011.0
20260509193404 79 296 2.0 6.0 0.00 0.00 0.00 48 1011.1
20260509192904 78 355 2.0 8.0 0.00 0.00 0.00 47 1011.1
20260509192405 78 348 2.0 8.0 0.00 0.00 0.00 47 1011.1
20260509191404 78 115 5.0 7.0 0.00 0.00 0.00 47 1011.2
20260509190905 78 63 3.0 8.0 0.00 0.00 0.00 47 1011.2
20260509190405 78 2 5.0 9.0 0.00 0.00 0.00 45 1011.2
20260509185905 78 346 3.0 8.0 0.00 0.00 0.00 46 1011.2
20260509185405 77 356 2.0 3.0 0.00 0.00 0.00 52 1011.3
20260509184905 77 0 2.0 3.0 0.00 0.00 0.00 48 1011.4
20260509183904 77 296 5.0 9.0 0.00 0.00 0.00 48 1011.5
20260509183405 76 48 2.0 3.0 0.00 0.00 0.00 51 1011.5
20260509182905 77 322 5.0 9.0 0.00 0.00 0.00 49 1011.5
20260509182404 77 345 3.0 8.0 0.00 0.00 0.00 49 1011.5
20260509181905 76 218 3.0 9.0 0.00 0.00 0.00 51 1011.5
20260509181405 77 292 4.0 9.0 0.00 0.00 0.00 52 1011.5
20260509180905 77 271 4.0 7.0 0.00 0.00 0.00 54 1011.5
20260509180405 76 186 4.0 7.0 0.00 0.00 0.00 54 1011.5
20260509175905 76 203 3.0 8.0 0.00 0.00 0.00 57 1011.4
20260509175405 76 298 3.0 12.0 0.00 0.00 0.00 54 1011.4
20260509174905 76 207 3.0 8.0 0.00 0.00 0.00 56 1011.4
20260509173905 75 193 2.0 3.0 0.00 0.00 0.00 57 1011.3
20260509173405 75 324 1.0 3.0 0.00 0.00 0.00 55 1011.4
20260509172905 75 285 3.0 8.0 0.00 0.00 0.00 56 1011.5
20260509172405 76 313 5.0 9.0 0.00 0.00 0.00 56 1011.5
20260509171904 75 315 5.0 8.0 0.00 0.00 0.00 58 1011.5
20260509171404 75 306 4.0 9.0 0.00 0.00 0.00 58 1011.7
20260509170905 75 250 5.0 9.0 0.00 0.00 0.00 59 1011.5
20260509170405 74 297 0.0 5.0 0.00 0.00 0.00 58 1011.6
20260509165905 74 25 2.0 3.0 0.00 0.00 0.00 60 1011.6
20260509164905 75 291 3.0 7.0 0.00 0.00 0.00 62 1011.5
20260509163904 73 301 3.0 7.0 0.00 0.00 0.00 60 1011.5
20260509162905 72 354 2.0 7.0 0.00 0.00 0.00 61 1011.4
20260509162404 73 13 1.0 5.0 0.00 0.00 0.00 60 1011.3
20260509161406 72 352 2.0 5.0 0.00 0.00 0.00 64 1011.2
20260509160904 73 19 3.0 7.0 0.00 0.00 0.00 64 1011.2
20260509160404 72 286 2.0 8.0 0.00 0.00 0.00 63 1011.2
20260509155404 72 287 6.0 8.0 0.00 0.00 0.00 63 1011.1
20260509154405 71 334 3.0 8.0 0.00 0.00 0.00 64 1011.2
20260509153905 71 296 4.0 9.0 0.00 0.00 0.00 65 1011.2
20260509153405 71 342 5.0 9.0 0.00 0.00 0.00 66 1011.1
20260509152904 70 358 3.0 9.0 0.00 0.00 0.00 67 1011.2
20260509152404 71 275 4.0 7.0 0.00 0.00 0.00 68 1011.1
20260509151905 70 310 3.0 7.0 0.00 0.00 0.00 69 1011.1
20260509151404 70 289 4.0 8.0 0.00 0.00 0.00 69 1011.2
20260509150904 70 347 3.0 7.0 0.00 0.00 0.00 70 1011.2
20260509150405 69 300 5.0 9.0 0.00 0.00 0.00 70 1011.2
20260509145405 69 304 2.0 9.0 0.00 0.00 0.00 72 1011.2
20260509144905 69 270 3.0 10.0 0.00 0.00 0.00 72 1011.2
20260509144405 68 290 5.0 8.0 0.00 0.00 0.00 73 1011.2
20260509143905 68 292 6.0 10.0 0.00 0.00 0.00 73 1011.2
20260509142904 67 292 3.0 8.0 0.00 0.00 0.00 74 1011.2
20260509142405 67 282 5.0 9.0 0.00 0.00 0.00 74 1011.2
20260509140905 66 280 3.0 10.0 0.00 0.00 0.00 76 1011.0
20260509140405 66 296 5.0 8.0 0.00 0.00 0.00 77 1011.0
20260509135905 65 297 5.0 8.0 0.00 0.00 0.00 77 1010.9
20260509135405 65 334 6.0 12.0 0.00 0.00 0.00 76 1010.9
20260509134905 65 295 4.0 9.0 0.00 0.00 0.00 77 1010.9
20260509134404 65 282 6.0 10.0 0.00 0.00 0.00 78 1010.8
20260509133405 64 287 6.0 10.0 0.00 0.00 0.00 79 1010.7
20260509132905 64 292 3.0 8.0 0.00 0.00 0.00 80 1010.7
20260509132405 63 282 3.0 7.0 0.00 0.00 0.00 80 1010.8
20260509131404 63 291 3.0 7.0 0.00 0.00 0.00 80 1010.8
20260509130904 62 293 4.0 10.0 0.00 0.00 0.00 81 1010.9
20260509130405 62 299 3.0 8.0 0.00 0.00 0.00 82 1010.9
20260509125905 62 305 2.0 5.0 0.00 0.00 0.00 82 1010.8
20260509124905 61 245 1.0 6.0 0.00 0.00 0.00 83 1010.6
20260509124405 60 250 2.0 3.0 0.00 0.00 0.00 84 1010.6
20260509123905 60 240 2.0 5.0 0.00 0.00 0.00 84 1010.6
20260509123405 60 239 1.0 3.0 0.00 0.00 0.00 84 1010.7
20260509122405 59 295 2.0 6.0 0.00 0.00 0.00 85 1010.8
20260509121905 59 231 1.0 3.0 0.00 0.00 0.00 85 1010.8
20260509121404 58 272 2.0 3.0 0.00 0.00 0.00 86 1010.8
20260509120905 58 229 0.0 2.0 0.00 0.00 0.00 86 1010.8
20260509120405 57 229 1.0 3.0 0.00 0.00 0.00 87 1010.7
20260509115905 57 239 1.0 3.0 0.00 0.00 0.00 87 1010.7
20260509115405 57 220 2.0 3.0 0.00 0.00 0.00 87 1010.7
20260509114904 56 192 1.0 3.0 0.00 0.00 0.00 87 1010.4
20260509114404 56 169 0.0 3.0 0.00 0.00 0.00 88 1010.4
20260509113904 56 247 1.0 2.0 0.00 0.00 0.00 87 1010.2
20260509113404 56 217 1.0 2.0 0.00 0.00 0.00 87 1010.1
20260509112904 56 217 1.0 2.0 0.00 0.00 0.00 87 1010.0
20260509112405 56 217 1.0 3.0 0.00 0.00 0.00 87 1009.9
20260509111405 56 217 2.0 5.0 0.00 0.00 0.00 87 1009.8
20260509110905 56 227 3.0 10.0 0.00 0.00 0.00 87 1009.8
20260509110404 56 238 2.0 7.0 0.00 0.00 0.00 86 1009.8
20260509105905 56 214 4.0 7.0 0.00 0.00 0.00 86 1009.7
20260509105404 56 220 5.0 7.0 0.00 0.00 0.00 86 1009.6
20260509104905 56 211 3.0 7.0 0.00 0.00 0.00 86 1009.4
20260509104405 56 229 2.0 9.0 0.00 0.00 0.00 86 1009.4
20260509103405 56 225 2.0 6.0 0.00 0.00 0.00 86 1009.2
20260509102905 56 206 4.0 9.0 0.00 0.00 0.00 86 1009.2
20260509102405 56 181 3.0 6.0 0.00 0.00 0.00 85 1009.1
20260509101404 57 208 4.0 9.0 0.00 0.00 0.00 85 1009.2
20260509100904 57 222 3.0 12.0 0.00 0.00 0.00 85 1009.3
20260509100405 57 228 3.0 7.0 0.00 0.00 0.00 85 1009.4
20260509095905 57 209 5.0 7.0 0.00 0.00 0.00 85 1009.3
20260509095405 57 219 5.0 9.0 0.00 0.00 0.00 85 1009.2
20260509094905 57 207 5.0 10.0 0.00 0.00 0.00 85 1009.2
20260509094405 57 196 4.0 12.0 0.00 0.00 0.00 85 1009.3
20260509093904 57 198 5.0 8.0 0.00 0.00 0.00 85 1009.3
20260509093404 57 222 4.0 8.0 0.00 0.00 0.00 84 1009.5
20260509092905 57 218 5.0 7.0 0.00 0.00 0.00 84 1009.4
20260509091905 57 205 5.0 9.0 0.00 0.00 0.00 84 1009.4
20260509091404 57 199 5.0 9.0 0.00 0.00 0.00 84 1009.5